#timestamp,LO_Frequency,Hit 
1498042815.4,286047188.6,N
1498042835.2,286047162.7,N
1498042855.1,286047168.9,N
1498042856.0,286047168.9,N
1498042875.8,286047157.5,N
1498042895.6,286047143.7,N
1498042915.4,286047133.0,N
1498042935.3,286047131.8,N
1498042955.1,286047121.1,N
1498042975.8,286047107.0,N
1498042995.7,286047099.9,N
1498043015.5,286047101.4,N
1498043035.3,286047100.3,N
1498043055.2,286047102.1,N
1498043075.9,286047101.1,N
1498043095.7,286047096.4,N
1498043115.6,286047076.6,N
1498043135.4,286047062.2,N
1498043155.2,286047051.3,N
1498043175.1,286047041.7,N
1498043176.0,286047041.7,N
1498043195.8,286047034.7,N
1498043215.6,286047037.8,N
1498043235.5,286047030.7,N
1498043255.3,286047019.5,N
1498043275.1,286047018.4,N
1498043295.9,286047026.5,N
1498043315.7,286047023.0,N
1498043335.5,286047047.3,N
1498043355.4,286047049.3,N
1498043375.2,286047042.6,N
1498043395.0,286047037.9,N
1498043395.9,286047037.9,N
1498043415.8,286047044.3,N
1498043435.6,286047033.5,N
1498043455.4,286047023.5,N
1498043475.3,286047017.7,N
1498043495.1,286047025.5,N
1498043496.0,286047025.5,N
1498043515.8,286047026.7,N
1498043535.6,286047038.2,N
1498043555.5,286047025.7,N
1498043575.3,286047024.6,N
1498043595.2,286047019.6,N
1498043615.9,286047015.3,N
1498043635.7,286047008.6,N
1498043655.5,286047010.1,N
1498043675.4,286047018.8,N
1498043695.2,286047004.9,N
1498043715.0,286047001.2,N
1498043716.0,286047001.2,N
1498043735.8,286046994.9,N
1498043755.6,286046989.1,N
1498043775.4,286046992.2,N
1498043795.3,286047021.3,N
1498043815.1,286047014.5,N
1498043835.8,286047006.0,N
1498043855.7,286047002.1,N
1498043875.5,286047014.5,N
1498043895.3,286047010.0,N
1498043915.2,286047013.1,N
1498043935.9,286047003.8,N
1498043955.7,286046988.8,N
1498043975.6,286046977.8,N
1498043995.4,286046968.3,N
1498044015.2,286046960.5,N
1498044035.0,286046957.9,N
1498044036.0,286046957.9,N
1498044055.8,286046973.3,N
1498044075.6,286046981.4,N
1498044095.4,286046975.0,N
1498044115.6,286046965.8,N
1498044135.4,286046958.9,N
1498044155.2,286046959.2,N
1498044175.1,286046950.9,N
1498044176.0,286046950.9,N
1498044195.8,286046942.3,N
1498044215.6,286046936.6,N
1498044235.5,286046934.4,N
1498044255.3,286046928.7,N
1498044275.1,286046923.7,N
1498044295.9,286046922.1,N
1498044315.7,286046925.9,N
1498044335.1,286046931.9,N
1498044336.0,286046931.9,N
1498044355.8,286046927.0,N
1498044375.7,286046921.8,N
1498044395.5,286046926.8,N
1498044415.3,286046928.7,N
1498044435.2,286046918.3,N
1498044455.9,286046914.6,N
1498044475.7,286046908.2,N
1498044495.6,286046909.1,N
1498044515.4,286046928.5,N
1498044535.2,286046962.6,N
1498044555.0,286046963.3,N
1498044556.0,286046963.3,N
1498044575.8,286046962.0,N
1498044595.6,286046960.2,N
1498044615.4,286046947.2,N
1498044635.3,286046938.1,N
1498044655.1,286046943.0,N
1498044675.8,286046949.5,N
1498044695.7,286046942.3,N
1498044715.5,286046932.8,N
1498044735.3,286046922.9,N
1498044755.2,286046919.5,N
1498044775.9,286046912.4,N
1498044795.7,286046916.4,N
1498044815.6,286046909.2,N
1498044835.4,286046913.7,N
1498044855.2,286046919.5,N
1498044875.1,286046921.5,N
1498044876.0,286046921.5,N
1498044895.8,286046916.3,N
1498044915.6,286046924.9,N
1498044935.4,286046938.6,N
1498044955.3,286046928.4,N
1498044975.1,286046927.1,N
1498044995.8,286046923.3,N
1498045015.7,286046947.3,N
1498045035.5,286046942.4,N
1498045055.3,286046931.0,N
1498045075.2,286046920.8,N
1498045095.9,286046909.1,N
1498045115.7,286046899.1,N
1498045135.6,286046900.3,N
1498045155.4,286046902.6,N
1498045175.2,286046901.3,N
1498045195.0,286046918.8,N
1498045196.0,286046918.8,N
1498045215.8,286046920.7,N
1498045235.6,286046922.2,N
1498045255.4,286046933.4,N
1498045275.3,286046928.9,N
1498045295.1,286046929.2,N
1498045315.8,286046918.4,N
1498045335.7,286046911.3,N
1498045355.5,286046906.4,N
1498045375.3,286046898.7,N
1498045395.2,286046892.8,N
1498045415.9,286046891.2,N
1498045435.7,286046888.6,N
1498045455.6,286046884.3,N
1498045475.4,286046880.3,N
1498045495.2,286046882.5,N
1498045515.1,286046880.8,N
1498045516.0,286046880.8,N
1498045535.8,286046886.5,N
1498045555.6,286046883.4,N
1498045575.5,286046886.0,N
1498045595.3,286046879.0,N
1498045615.1,286046877.5,N
1498045635.8,286046872.5,N
1498045655.7,286046868.8,N
1498045675.5,286046866.1,N
1498045695.3,286046868.6,N
1498045715.2,286046880.3,N
1498045735.9,286046882.5,N
1498045755.7,286046882.1,N
1498045775.6,286046877.0,N
1498045795.4,286046874.5,N
1498045815.2,286046869.4,N
1498045835.1,286046868.5,N
1498045836.0,286046868.5,N
1498045855.8,286046881.0,N
1498045875.6,286046875.6,N
1498045895.5,286046871.9,N
1498045915.3,286046882.6,N
1498045935.1,286046878.0,N
1498045955.9,286046872.5,N
1498045975.7,286046871.7,N
1498045995.5,286046875.9,N
1498046015.3,286046870.9,N
1498046035.2,286046866.9,N
1498046055.0,286046867.0,N
1498046055.9,286046867.0,N
1498046075.7,286046865.1,N
1498046095.6,286046861.7,N
1498046115.4,286046863.8,N
1498046135.2,286046890.8,N
1498046155.1,286046891.2,N
1498046156.0,286046891.2,N
1498046175.8,286046884.7,N
1498046195.6,286046887.0,N
1498046215.5,286046877.0,N
1498046235.3,286046871.3,N
1498046255.1,286046876.9,N
1498046275.9,286046900.0,N
1498046295.7,286046903.5,N
1498046315.5,286046900.2,N
1498046335.4,286046891.6,N
1498046355.2,286046902.7,N
1498046375.0,286046911.1,N
1498046375.9,286046911.1,N
1498046395.8,286046906.3,N
